DW9615 Home Hill AU current weather conditions

sailwx.info

Wind from 015 at 2 knots gusting 9

Air temperature 32.2° C
Dewpoint 20.5° C

Last reported at 2014-Dec-18 04:50 UTC.
Time now 2014-Dec-18 05:47 UTC

Location: S 19°40' E 147°25'.
View on Google Maps.

See reports from other nearby stations

  
Tides and Currents Weather Stations Pressure Air Temp Water Temp Dewpoint Dewpoint Depression Visibility Wind Speed Wind Dir Waves Ship Positions
date/time (UTC)wind fromknots sea level pressurealtimeterstation pressurevisibilityair tempwater tempwave heightnotes
2014-Dec-18 04:50 015 2 gusting 9 32.2
2014-Dec-18 04:35 035 3 gusting 13 32.2
2014-Dec-18 04:20 317 4 gusting 13 32.2
2014-Dec-18 04:05 024 4 gusting 12 32.2
2014-Dec-18 03:50 342 3 gusting 10 32.2
2014-Dec-18 03:35 346 2 gusting 8 32.2
2014-Dec-18 03:20 025 3 gusting 12 32.2
2014-Dec-18 03:05 039 2 gusting 12 31.7
2014-Dec-18 02:50 027 2 gusting 8 32.2
2014-Dec-18 02:35 349 5 gusting 9 32.2
2014-Dec-18 02:20 097 3 gusting 6 32.2
2014-Dec-18 02:05 012 4 gusting 9 32.2
2014-Dec-18 01:50 054 5 gusting 11 31.7
2014-Dec-18 01:35 066 4 gusting 8 31.7
2014-Dec-18 01:20 034 2 gusting 9 31.7
2014-Dec-18 01:05 100 2 gusting 7 31.7
2014-Dec-18 00:50 029 2 gusting 8 31.7
2014-Dec-18 00:35 007 2 gusting 6 31.7
2014-Dec-18 00:20 049 2 gusting 12 31.7
2014-Dec-18 00:05 340 2 gusting 10 31.1
2014-Dec-17 23:50 337 2 gusting 8 31.1
2014-Dec-17 23:35 344 6 gusting 11 31.1
2014-Dec-17 23:20 325 2 gusting 6 30.6
2014-Dec-17 23:05 354 6 gusting 11 30.6
2014-Dec-17 22:50 344 4 gusting 7 30.0
2014-Dec-17 22:35 333 3 gusting 8 29.4
2014-Dec-17 22:20 343 3 gusting 9 29.4
2014-Dec-17 22:05 304 2 gusting 8 28.9
2014-Dec-17 21:49 005 4 gusting 9 28.9
2014-Dec-17 21:34 356 1 gusting 6 28.3
2014-Dec-17 21:19 072 0 gusting 6 28.3
2014-Dec-17 21:04 061 0 gusting 3 27.2
2014-Dec-17 20:49 050 26.7
2014-Dec-17 20:34 333 26.1
2014-Dec-17 20:19 045 25.0
2014-Dec-17 20:04 347 23.9
2014-Dec-17 19:49 347 22.8
2014-Dec-17 19:34 347 22.8
2014-Dec-17 19:19 347 22.8
2014-Dec-17 19:04 343 22.8
2014-Dec-17 18:49 344 22.8
2014-Dec-17 18:34 343 22.8
2014-Dec-17 18:19 343 22.8
2014-Dec-17 18:04 045 22.8
2014-Dec-17 17:49 019 22.8
2014-Dec-17 17:34 019 22.8
2014-Dec-17 17:19 019 22.8
2014-Dec-17 17:04 019 23.3
2014-Dec-17 16:49 019 23.9
2014-Dec-17 16:34 351 23.9
2014-Dec-17 16:19 351 23.9
2014-Dec-17 16:04 018 23.9
2014-Dec-17 15:49 353 23.9
2014-Dec-17 15:33 344 23.9
2014-Dec-17 15:18 054 23.9
2014-Dec-17 15:03 353 23.9
2014-Dec-17 14:48 358 23.9
2014-Dec-17 14:33 015 24.4
2014-Dec-17 14:18 347 24.4
2014-Dec-17 14:03 014 24.4
2014-Dec-17 13:48 347 24.4
2014-Dec-17 13:33 358 24.4
2014-Dec-17 13:18 342 25.0
2014-Dec-17 13:03 347 24.4
2014-Dec-17 12:48 319 25.0
2014-Dec-17 12:33 353 24.4
2014-Dec-17 12:18 339 24.4
2014-Dec-17 12:03 358 23.9
2014-Dec-17 11:48 353 24.4
2014-Dec-17 11:33 343 24.4
2014-Dec-17 11:18 036 24.4
2014-Dec-17 11:03 002 24.4
2014-Dec-17 10:48 069 25.0
2014-Dec-17 10:33 059 25.0
2014-Dec-17 10:18 048 25.0
2014-Dec-17 10:03 050 25.6
2014-Dec-17 09:48 350 25.6
2014-Dec-17 09:33 043 26.1
2014-Dec-17 09:18 063 26.7
2014-Dec-17 09:03 017 27.2
2014-Dec-17 08:48 027 27.8
2014-Dec-17 08:33 071 28.3
2014-Dec-17 08:18 358 0 gusting 5 28.9
2014-Dec-17 07:48 314 1 gusting 6 30.0
2014-Dec-17 07:33 081 2 gusting 7 30.6
2014-Dec-17 07:18 337 5 gusting 10 31.1
2014-Dec-17 07:03 077 3 gusting 8 31.1
2014-Dec-17 06:48 064 2 gusting 9 31.7
2014-Dec-17 06:33 066 2 gusting 8 31.7
2014-Dec-17 06:18 329 3 gusting 9 32.2
2014-Dec-17 06:03 062 3 gusting 13 32.2
2014-Dec-17 05:48 012 6 gusting 12 32.8
2014-Dec-17 05:33 011 2 gusting 8 32.8
2014-Dec-17 05:18 315 1 gusting 11 32.8
2014-Dec-17 05:03 007 3 gusting 8 32.8
2014-Dec-17 04:48 347 5 gusting 11 32.8
2014-Dec-17 04:33 040 3 gusting 9 32.8
2014-Dec-17 04:18 021 2 gusting 6 33.3
2014-Dec-17 04:03 018 5 gusting 13 32.8
2014-Dec-17 03:48 027 6 gusting 11 33.3
2014-Dec-17 03:33 311 6 gusting 10 33.3
2014-Dec-17 03:18 336 2 gusting 10 32.8
2014-Dec-17 03:03 306 3 gusting 10 32.8
2014-Dec-17 02:48 349 2 gusting 8 32.8
2014-Dec-17 02:33 320 4 gusting 8 32.8
2014-Dec-17 02:18 353 4 gusting 10 32.8
2014-Dec-17 02:02 002 2 gusting 7 32.8
2014-Dec-17 01:47 003 2 gusting 8 32.8
2014-Dec-17 01:32 351 2 gusting 6 32.8
2014-Dec-17 01:17 346 5 gusting 9 32.2
2014-Dec-17 01:02 350 2 gusting 10 32.2
2014-Dec-17 00:47 005 4 gusting 9 32.2
2014-Dec-17 00:32 311 1 gusting 7 32.2
2014-Dec-17 00:17 312 3 gusting 9 31.7
2014-Dec-17 00:02 003 4 gusting 9 31.1
2014-Dec-16 23:47 330 4 gusting 11 31.1
2014-Dec-16 23:32 012 2 gusting 6 31.7
2014-Dec-16 23:17 032 2 gusting 8 31.1
2014-Dec-16 23:02 005 2 gusting 7 30.6
2014-Dec-16 22:47 036 2 gusting 8 30.6
2014-Dec-16 22:32 323 3 gusting 8 30.0
2014-Dec-16 22:17 344 2 gusting 7 29.4
2014-Dec-16 22:02 005 1 gusting 8 29.4
2014-Dec-16 21:47 339 2 gusting 6 28.9
2014-Dec-16 21:32 034 1 gusting 6 28.3
2014-Dec-16 21:17 021 0 gusting 3 28.3
2014-Dec-16 21:02 351 27.2
2014-Dec-16 20:47 347 26.7
2014-Dec-16 20:31 012 26.1
2014-Dec-16 20:16 012 24.4
2014-Dec-16 20:01 012 22.8
2014-Dec-16 19:47 012 22.2
2014-Dec-16 19:31 012 22.2
2014-Dec-16 19:16 012 22.2
2014-Dec-16 19:01 012 22.2
2014-Dec-16 18:46 012 21.7